Time,TemperatureF,DewpointF,PressureIn,WindDirection,WindDirectionDegrees,WindSpeedMPH,WindSpeedGustMPH,Humidity,HourlyPrecipIn,Conditions,Clouds,dailyrainin,SoftwareType,DateUTC
2013-04-27 00:01:00,34.0,8.0,30.55,North,350,11.0,19.0,33,0.00,,,0.00,,2013-04-27 07:01:00,
2013-04-27 00:11:00,34.0,8.0,30.55,North,350,11.0,19.0,33,0.00,,,0.00,,2013-04-27 07:11:00,
2013-04-27 00:21:00,34.0,7.0,30.54,North,350,12.0,16.0,31,0.00,,,0.00,,2013-04-27 07:21:00,
2013-04-27 00:31:00,34.0,5.0,30.54,North,359,12.0,21.0,29,0.00,,,0.00,,2013-04-27 07:31:00,
2013-04-27 00:52:00,34.0,4.0,30.54,North,9,15.0,22.0,28,0.00,,,0.00,,2013-04-27 07:52:00,
2013-04-27 01:01:00,35.0,5.0,30.54,North,359,16.0,20.0,28,0.00,,,0.00,,2013-04-27 08:01:00,
2013-04-27 01:11:00,35.0,5.0,30.54,North,359,16.0,20.0,28,0.00,,,0.00,,2013-04-27 08:11:00,
2013-04-27 01:21:00,34.0,7.0,30.54,North,352,12.0,19.0,31,0.00,,,0.00,,2013-04-27 08:21:00,
2013-04-27 01:32:00,34.0,7.0,30.53,North,353,11.0,18.0,31,0.00,,,0.00,,2013-04-27 08:32:00,
2013-04-27 01:52:00,34.0,5.0,30.53,North,11,13.0,19.0,29,0.00,,,0.00,,2013-04-27 08:52:00,
2013-04-27 02:01:00,34.0,5.0,30.52,NNE,12,14.0,20.0,29,0.00,,,0.00,,2013-04-27 09:01:00,
2013-04-27 02:21:00,34.0,5.0,30.52,NNE,12,15.0,20.0,29,0.00,,,0.00,,2013-04-27 09:21:00,
2013-04-27 02:33:00,34.0,7.0,30.51,North,356,14.0,18.0,31,0.00,,,0.00,,2013-04-27 09:33:00,
2013-04-27 02:53:00,34.0,7.0,30.50,North,4,18.0,24.0,32,0.00,,,0.00,,2013-04-27 09:53:00,
2013-04-27 03:02:00,34.0,8.0,30.50,NNE,14,12.0,21.0,33,0.00,,,0.00,,2013-04-27 10:02:00,
2013-04-27 03:22:00,34.0,8.0,30.51,North,9,14.0,21.0,33,0.00,,,0.00,,2013-04-27 10:22:00,
2013-04-27 03:32:00,34.0,7.0,30.51,North,5,13.0,18.0,32,0.00,,,0.00,,2013-04-27 10:32:00,
2013-04-27 03:52:00,34.0,7.0,30.52,North,10,11.0,15.0,32,0.00,,,0.00,,2013-04-27 10:52:00,
2013-04-27 04:02:00,34.0,7.0,30.51,North,357,12.0,20.0,31,0.00,,,0.00,,2013-04-27 11:02:00,
2013-04-27 04:11:00,34.0,7.0,30.51,North,4,13.0,18.0,31,0.00,,,0.00,,2013-04-27 11:11:00,
2013-04-27 04:21:00,34.0,7.0,30.51,North,4,13.0,18.0,31,0.00,,,0.00,,2013-04-27 11:21:00,
2013-04-27 04:31:00,34.0,7.0,30.51,North,2,13.0,20.0,32,0.00,,,0.00,,2013-04-27 11:31:00,
2013-04-27 04:52:00,34.0,7.0,30.51,North,8,13.0,18.0,32,0.00,,,0.00,,2013-04-27 11:52:00,
2013-04-27 05:01:00,34.0,7.0,30.51,North,11,11.0,18.0,32,0.00,,,0.00,,2013-04-27 12:01:00,
2013-04-27 05:21:00,34.0,7.0,30.50,North,8,12.0,18.0,31,0.00,,,0.00,,2013-04-27 12:21:00,
2013-04-27 05:32:00,34.0,6.0,30.50,NNE,12,11.0,16.0,30,0.00,,,0.00,,2013-04-27 12:32:00,
2013-04-27 05:52:00,34.0,6.0,30.51,North,11,10.0,16.0,30,0.00,,,0.00,,2013-04-27 12:52:00,
2013-04-27 06:01:00,34.0,6.0,30.51,North,8,11.0,15.0,30,0.00,,,0.00,,2013-04-27 13:01:00,
2013-04-27 06:21:00,34.0,6.0,30.51,NNE,18,10.0,15.0,30,0.00,,,0.00,,2013-04-27 13:21:00,
2013-04-27 06:32:00,33.0,7.0,30.52,NNE,14,12.0,16.0,33,0.00,,,0.00,,2013-04-27 13:32:00,
2013-04-27 06:52:00,33.0,7.0,30.52,NNE,12,13.0,17.0,33,0.00,,,0.00,,2013-04-27 13:52:00,
2013-04-27 07:01:00,33.0,7.0,30.52,NNE,13,14.0,21.0,33,0.00,,,0.00,,2013-04-27 14:01:00,
2013-04-27 07:21:00,33.0,7.0,30.53,North,10,12.0,18.0,33,0.00,,,0.00,,2013-04-27 14:21:00,
2013-04-27 07:31:00,33.0,7.0,30.52,NNE,15,14.0,19.0,33,0.00,,,0.00,,2013-04-27 14:31:00,
2013-04-27 07:52:00,34.0,8.0,30.52,North,8,10.0,19.0,33,0.00,,,0.00,,2013-04-27 14:52:00,
2013-04-27 08:01:00,34.0,7.0,30.54,North,10,11.0,18.0,32,0.00,,,0.00,,2013-04-27 15:01:00,
2013-04-27 08:11:00,34.0,7.0,30.54,North,10,11.0,18.0,32,0.00,,,0.00,,2013-04-27 15:11:00,
2013-04-27 08:21:00,35.0,8.0,30.53,North,8,11.0,16.0,32,0.00,,,0.00,,2013-04-27 15:21:00,
2013-04-27 08:33:00,35.0,8.0,30.54,North,359,10.0,18.0,32,0.00,,,0.00,,2013-04-27 15:33:00,
2013-04-27 08:42:00,35.0,8.0,30.54,North,359,10.0,18.0,32,0.00,,,0.00,,2013-04-27 15:42:00,
2013-04-27 08:52:00,35.0,9.0,30.54,North,11,9.0,17.0,33,0.00,,,0.00,,2013-04-27 15:52:00,
2013-04-27 09:02:00,36.0,9.0,30.54,North,359,8.0,15.0,32,0.00,,,0.00,,2013-04-27 16:02:00,
2013-04-27 09:13:00,36.0,9.0,30.54,North,359,8.0,15.0,32,0.00,,,0.00,,2013-04-27 16:13:00,
2013-04-27 09:22:00,36.0,9.0,30.54,NNW,340,6.0,11.0,32,0.00,,,0.00,,2013-04-27 16:22:00,
2013-04-27 09:32:00,37.0,10.0,30.54,NNW,327,7.0,13.0,32,0.00,,,0.00,,2013-04-27 16:32:00,
2013-04-27 09:42:00,37.0,10.0,30.54,NNW,327,7.0,13.0,32,0.00,,,0.00,,2013-04-27 16:42:00,
2013-04-27 09:52:00,36.0,8.0,30.54,NNW,346,11.0,16.0,31,0.00,,,0.00,,2013-04-27 16:52:00,
2013-04-27 10:01:00,37.0,11.0,30.54,NW,317,4.0,14.0,33,0.00,,,0.00,,2013-04-27 17:01:00,
2013-04-27 10:11:00,37.0,11.0,30.54,NW,317,4.0,14.0,33,0.00,,,0.00,,2013-04-27 17:11:00,
2013-04-27 10:22:00,37.0,8.0,30.54,NNW,331,4.0,13.0,30,0.00,,,0.00,,2013-04-27 17:22:00,
2013-04-27 10:31:00,37.0,8.0,30.55,West,265,3.0,7.0,29,0.00,,,0.00,,2013-04-27 17:31:00,
2013-04-27 10:42:00,37.0,8.0,30.55,West,265,3.0,7.0,29,0.00,,,0.00,,2013-04-27 17:42:00,
2013-04-27 10:53:00,37.0,8.0,30.54,West,267,6.0,10.0,30,0.00,,,0.00,,2013-04-27 17:53:00,
2013-04-27 11:02:00,38.0,11.0,30.55,WNW,291,6.0,11.0,32,0.00,,,0.00,,2013-04-27 18:02:00,
2013-04-27 11:11:00,38.0,11.0,30.55,WNW,291,6.0,11.0,32,0.00,,,0.00,,2013-04-27 18:11:00,
2013-04-27 11:21:00,38.0,9.0,30.54,SSW,195,3.0,11.0,29,0.00,,,0.00,,2013-04-27 18:21:00,
2013-04-27 11:31:00,39.0,11.0,30.55,West,263,5.0,10.0,31,0.00,,,0.00,,2013-04-27 18:31:00,
2013-04-27 11:41:00,39.0,11.0,30.55,West,263,5.0,10.0,31,0.00,,,0.00,,2013-04-27 18:41:00,
2013-04-27 11:52:00,41.0,12.0,30.55,NW,310,3.0,9.0,30,0.00,,,0.00,,2013-04-27 18:52:00,
2013-04-27 12:01:00,40.0,9.0,30.55,North,349,2.0,7.0,27,0.00,,,0.00,,2013-04-27 19:01:00,
2013-04-27 12:11:00,40.0,9.0,30.55,North,349,2.0,7.0,27,0.00,,,0.00,,2013-04-27 19:11:00,
2013-04-27 12:21:00,40.0,11.0,30.54,West,259,6.0,13.0,30,0.00,,,0.00,,2013-04-27 19:21:00,
2013-04-27 12:31:00,42.0,13.0,30.53,NW,308,5.0,15.0,30,0.00,,,0.00,,2013-04-27 19:31:00,
2013-04-27 12:41:00,42.0,13.0,30.53,NW,308,5.0,15.0,30,0.00,,,0.00,,2013-04-27 19:41:00,
2013-04-27 12:52:00,40.0,11.0,30.53,SSW,195,2.0,15.0,30,0.00,,,0.00,,2013-04-27 19:52:00,
2013-04-27 13:01:00,41.0,13.0,30.53,West,270,9.0,17.0,31,0.00,,,0.00,,2013-04-27 20:01:00,
2013-04-27 13:11:00,41.0,13.0,30.53,West,270,9.0,17.0,31,0.00,,,0.00,,2013-04-27 20:11:00,
2013-04-27 13:21:00,41.0,11.0,30.53,WSW,258,9.0,16.0,29,0.00,,,0.00,,2013-04-27 20:21:00,
2013-04-27 13:31:00,42.0,14.0,30.52,NW,318,6.0,12.0,32,0.00,,,0.00,,2013-04-27 20:31:00,
2013-04-27 13:41:00,42.0,14.0,30.52,NW,318,6.0,12.0,32,0.00,,,0.00,,2013-04-27 20:41:00,
2013-04-27 13:52:00,44.0,15.0,30.54,WNW,300,4.0,12.0,30,0.00,,,0.00,,2013-04-27 20:52:00,
2013-04-27 14:01:00,42.0,11.0,30.53,WNW,301,2.0,12.0,28,0.00,,,0.00,,2013-04-27 21:01:00,
2013-04-27 14:11:00,42.0,11.0,30.53,WNW,301,2.0,12.0,28,0.00,,,0.00,,2013-04-27 21:11:00,
2013-04-27 14:21:00,43.0,13.0,30.53,West,272,7.0,14.0,29,0.00,,,0.00,,2013-04-27 21:21:00,
2013-04-27 14:32:00,44.0,10.0,30.52,SSW,205,7.0,11.0,25,0.00,,,0.00,,2013-04-27 21:32:00,
2013-04-27 14:42:00,44.0,10.0,30.52,SSW,205,7.0,11.0,25,0.00,,,0.00,,2013-04-27 21:42:00,
2013-04-27 14:53:00,44.0,15.0,30.51,NW,304,3.0,13.0,30,0.00,,,0.00,,2013-04-27 21:53:00,
2013-04-27 15:02:00,42.0,10.0,30.52,WSW,246,3.0,18.0,27,0.00,,,0.00,,2013-04-27 22:02:00,
2013-04-27 15:12:00,42.0,10.0,30.52,WSW,246,3.0,18.0,27,0.00,,,0.00,,2013-04-27 22:12:00,
2013-04-27 15:22:00,45.0,15.0,30.50,NNW,335,4.0,14.0,29,0.00,,,0.00,,2013-04-27 22:22:00,
2013-04-27 15:32:00,44.0,10.0,30.50,West,263,7.0,14.0,25,0.00,,,0.00,,2013-04-27 22:32:00,
2013-04-27 15:42:00,44.0,10.0,30.50,West,263,7.0,14.0,25,0.00,,,0.00,,2013-04-27 22:42:00,
2013-04-27 15:52:00,45.0,13.0,30.50,West,265,7.0,18.0,27,0.00,,,0.00,,2013-04-27 22:52:00,
2013-04-27 16:02:00,45.0,13.0,30.51,WSW,258,4.0,12.0,27,0.00,,,0.00,,2013-04-27 23:02:00,
2013-04-27 16:11:00,45.0,13.0,30.51,WSW,258,4.0,12.0,27,0.00,,,0.00,,2013-04-27 23:11:00,
2013-04-27 16:22:00,45.0,13.0,30.51,NNW,340,9.0,17.0,27,0.00,,,0.00,,2013-04-27 23:22:00,
2013-04-27 16:32:00,45.0,12.0,30.50,WNW,299,7.0,15.0,26,0.00,,,0.00,,2013-04-27 23:32:00,
2013-04-27 16:42:00,45.0,12.0,30.50,WNW,299,7.0,15.0,26,0.00,,,0.00,,2013-04-27 23:42:00,
2013-04-27 16:52:00,45.0,13.0,30.51,NW,314,4.0,11.0,27,0.00,,,0.00,,2013-04-27 23:52:00,
2013-04-27 17:01:00,46.0,15.0,30.52,WNW,289,4.0,12.0,28,0.00,,,0.00,,2013-04-28 00:01:00,
2013-04-27 17:11:00,46.0,15.0,30.52,WNW,289,4.0,12.0,28,0.00,,,0.00,,2013-04-28 00:11:00,
2013-04-27 17:21:00,46.0,11.0,30.51,WSW,243,3.0,8.0,24,0.00,,,0.00,,2013-04-28 00:21:00,
2013-04-27 17:31:00,46.0,11.0,30.51,WNW,298,3.0,9.0,24,0.00,,,0.00,,2013-04-28 00:31:00,
2013-04-27 17:42:00,46.0,11.0,30.51,WNW,298,3.0,9.0,24,0.00,,,0.00,,2013-04-28 00:42:00,
2013-04-27 17:52:00,44.0,11.0,30.51,NW,310,1.0,12.0,26,0.00,,,0.00,,2013-04-28 00:52:00,
2013-04-27 18:01:00,43.0,10.0,30.51,North,2,7.0,13.0,26,0.00,,,0.00,,2013-04-28 01:01:00,
2013-04-27 18:11:00,42.0,9.0,30.51,North,3,7.0,18.0,25,0.00,,,0.00,,2013-04-28 01:11:00,
2013-04-27 18:21:00,42.0,9.0,30.51,North,3,7.0,18.0,25,0.00,,,0.00,,2013-04-28 01:21:00,
2013-04-27 18:31:00,42.0,8.0,30.50,North,4,7.0,12.0,24,0.00,,,0.00,,2013-04-28 01:31:00,
2013-04-27 18:41:00,42.0,8.0,30.50,North,4,7.0,12.0,24,0.00,,,0.00,,2013-04-28 01:41:00,
2013-04-27 18:52:00,42.0,9.0,30.50,North,358,11.0,17.0,25,0.00,,,0.00,,2013-04-28 01:52:00,
2013-04-27 19:01:00,41.0,8.0,30.50,North,7,11.0,20.0,25,0.00,,,0.00,,2013-04-28 02:01:00,
2013-04-27 19:11:00,41.0,8.0,30.50,North,7,11.0,20.0,25,0.00,,,0.00,,2013-04-28 02:11:00,
2013-04-27 19:21:00,39.0,5.0,30.49,NNE,16,13.0,21.0,24,0.00,,,0.00,,2013-04-28 02:21:00,
2013-04-27 19:31:00,38.0,3.0,30.48,North,10,13.0,21.0,22,0.00,,,0.00,,2013-04-28 02:31:00,
2013-04-27 19:41:00,38.0,3.0,30.48,North,10,13.0,21.0,22,0.00,,,0.00,,2013-04-28 02:41:00,
2013-04-27 19:52:00,38.0,2.0,30.48,NNE,18,15.0,21.0,21,0.00,,,0.00,,2013-04-28 02:52:00,
2013-04-27 20:01:00,38.0,2.0,30.48,NNE,21,12.0,20.0,21,0.00,,,0.00,,2013-04-28 03:01:00,
2013-04-27 20:11:00,38.0,2.0,30.48,NNE,21,12.0,20.0,21,0.00,,,0.00,,2013-04-28 03:11:00,
2013-04-27 20:21:00,38.0,2.0,30.47,NNE,13,18.0,22.0,21,0.00,,,0.00,,2013-04-28 03:21:00,
2013-04-27 20:32:00,38.0,2.0,30.50,North,4,14.0,23.0,21,0.00,,,0.00,,2013-04-28 03:32:00,
2013-04-27 20:42:00,38.0,2.0,30.50,North,4,14.0,23.0,21,0.00,,,0.00,,2013-04-28 03:42:00,
2013-04-27 20:53:00,38.0,1.0,30.50,North,4,14.0,22.0,20,0.00,,,0.00,,2013-04-28 03:53:00,
2013-04-27 21:02:00,38.0,2.0,30.51,North,8,12.0,19.0,21,0.00,,,0.00,,2013-04-28 04:02:00,
2013-04-27 21:13:00,38.0,2.0,30.51,North,8,12.0,19.0,21,0.00,,,0.00,,2013-04-28 04:13:00,
2013-04-27 21:22:00,38.0,2.0,30.50,North,10,13.0,20.0,21,0.00,,,0.00,,2013-04-28 04:22:00,
2013-04-27 21:32:00,38.0,2.0,30.50,North,11,12.0,16.0,21,0.00,,,0.00,,2013-04-28 04:32:00,
2013-04-27 21:42:00,38.0,2.0,30.50,North,11,12.0,16.0,21,0.00,,,0.00,,2013-04-28 04:42:00,
2013-04-27 21:53:00,38.0,1.0,30.50,North,7,10.0,15.0,20,0.00,,,0.00,,2013-04-28 04:53:00,
2013-04-27 22:02:00,38.0,3.0,30.50,North,8,13.0,17.0,22,0.00,,,0.00,,2013-04-28 05:02:00,
2013-04-27 22:12:00,38.0,3.0,30.50,North,8,13.0,17.0,22,0.00,,,0.00,,2013-04-28 05:12:00,
2013-04-27 22:22:00,38.0,5.0,30.49,North,7,13.0,20.0,25,0.00,,,0.00,,2013-04-28 05:22:00,
2013-04-27 22:32:00,38.0,4.0,30.47,NNE,14,19.0,28.0,24,0.00,,,0.00,,2013-04-28 05:32:00,
2013-04-27 22:52:00,38.0,5.0,30.47,NNE,13,18.0,25.0,25,0.00,,,0.00,,2013-04-28 05:52:00,
2013-04-27 23:01:00,38.0,3.0,30.49,NNE,13,12.0,31.0,22,0.00,,,0.00,,2013-04-28 06:01:00,
2013-04-27 23:12:00,38.0,3.0,30.49,NNE,13,12.0,31.0,22,0.00,,,0.00,,2013-04-28 06:12:00,
2013-04-27 23:21:00,38.0,-1.0,30.47,NNE,16,17.0,23.0,19,0.00,,,0.00,,2013-04-28 06:21:00,
2013-04-27 23:32:00,38.0,-1.0,30.48,NNE,14,14.0,25.0,19,0.00,,,0.00,,2013-04-28 06:32:00,
2013-04-27 23:52:00,38.0,1.0,30.47,NNE,16,15.0,24.0,20,0.00,,,0.00,,2013-04-28 06:52:00,